Temp
-6 -5 -4 -4 -4 -4 -3 -4 -5 -4 -3 -2 -2 -2 -2 -2 -2 -3 -2 -3 -3 -4 -3 -4 -4 -4 -5 -5 -5 -5 -5 -5 -5 -6 -6 -6 -6 -6 -6 -6 -6 -6 -6 -6 -6 -6 -6 -7 -7
-6 -5 -4 -4 -4 -3 -3 -5 -5 -5 -3 -3 -2 -2 -2 -2 -2 -2 -2 -3 -3 -4 -3 -4 -4 -4 -5 -5 -5 -5 -5 -5 -5 -6 -6 -6 -6 -6 -6 -6 -6 -7 -7 -6 -6 -7 -7 -7 -7
-5 -5 -4 -4 -3 -3 -3 -3 -3 -3 -3 -3 -3 -2 -2 -2 -2 -3 -3 -3 -4 -3 -3 -4 -4 -4 -4 -5 -5 -5 -5 -5 -6 -6 -6 -6 -6 -6 -6 -6 -6 -6 -6 -6 -7 -7 -7 -7 -7
-6 -5 -4 -4 -3 -3 -3 -3 -3 -3 -3 -3 -3 -3 -2 -2 -3 -3 -3 -3 -4 -4 -4 -4 -4 -4 -4 -5 -5 -5 -5 -6 -6 -6 -6 -6 -6 -6 -6 -6 -6 -6 -6 -6 -6 -6 -6 -7 -7
-6 -5 -5 -4 -3 -3 -3 -3 -3 -3 -3 -3 -3 -3 -3 -3 -3 -3 -3 -4 -4 -4 -4 -4 -4 -4 -4 -5 -5 -5 -5 -6 -6 -6 -6 -6 -6 -6 -6 -6 -6 -6 -6 -6 -6 -6 -6 -7 -7
-6 -6 -6 -4 -3 -3 -3 -4 -3 -4 -4 -4 -3 -3 -3 -3 -3 -3 -3 -4 -4 -4 -4 -4 -5 -5 -5 -5 -5 -5 -5 -6 -6 -6 -6 -6 -6 -6 -6 -6 -6 -6 -6 -6 -6 -6 -6 -7 -7
-7 -7 -6 -5 -4 -3 -3 -4 -4 -4 -4 -4 -4 -4 -3 -3 -3 -3 -4 -4 -4 -4 -4 -4 -5 -5 -5 -5 -5 -5 -6 -6 -6 -6 -6 -6 -6 -7 -7 -7 -7 -7 -7 -7 -7 -7 -7 -7 -7
-6 -6 -6 -5 -5 -3 -4 -4 -4 -4 -5 -4 -4 -4 -4 -4 -4 -4 -4 -4 -4 -4 -4 -5 -5 -5 -5 -5 -5 -6 -6 -6 -6 -6 -7 -7 -7 -7 -7 -7 -7 -7 -7 -7 -7 -7 -7 -7 -7
-7 -6 -6 -5 -5 -4 -4 -4 -5 -4 -5 -4 -4 -5 -4 -4 -4 -4 -4 -4 -4 -4 -5 -5 -5 -5 -5 -5 -5 -6 -6 -6 -7 -7 -7 -7 -7 -7 -7 -7 -7 -7 -8 -8 -8 -8 -8 -8 -8
-7 -6 -5 -5 -6 -5 -5 -5 -4 -4 -5 -4 -4 -5 -5 -5 -4 -4 -4 -4 -4 -5 -5 -5 -5 -5 -5 -6 -6 -6 -6 -6 -7 -7 -7 -7 -7 -7 -7 -8 -8 -8 -8 -8 -8 -8 -8 -8 -8
-8 -7 -6 -5 -5 -5 -5 -5 -5 -5 -5 -4 -4 -5 -5 -5 -4 -4 -4 -5 -5 -5 -5 -5 -5 -5 -6 -6 -6 -6 -7 -7 -7 -7 -7 -7 -7 -8 -8 -8 -8 -8 -8 -8 -8 -8 -8 -8 -8
-7 -8 -7 -5 -4 -4 -4 -5 -6 -5 -5 -5 -5 -5 -5 -5 -5 -4 -4 -5 -5 -5 -5 -5 -5 -6 -6 -6 -6 -7 -7 -7 -6 -7 -7 -8 -8 -8 -8 -8 -9 -9 -9 -8 -8 -8 -8 -8 -8
-6 -7 -6 -6 -5 -4 -4 -4 -6 -6 -5 -5 -5 -5 -5 -5 -5 -5 -5 -4 -4 -5 -5 -5 -5 -6 -6 -6 -6 -7 -7 -7 -7 -7 -8 -8 -8 -9 -9 -9 -9 -9 -9 -9 -9 -9 -8 -8 -8
-6 -6 -6 -6 -6 -5 -4 -4 -5 -6 -6 -5 -5 -5 -4 -5 -5 -5 -5 -5 -5 -5 -5 -5 -6 -6 -6 -6 -7 -7 -7 -7 -7 -8 -8 -9 -9 -9 -9 -9 -9 -9 -9 -9 -9 -9 -9 -9 -9
-6 -6 -6 -6 -6 -6 -5 -4 -5 -5 -6 -5 -5 -5 -5 -5 -5 -5 -5 -5 -5 -5 -5 -5 -5 -6 -6 -6 -7 -7 -7 -7 -8 -8 -8 -9 -9 -9 -9 -9 -9 -9 -9 -9 -10 -10 -9 -10 -9
-7 -7 -6 -7 -6 -7 -6 -5 -5 -5 -6 -5 -5 -5 -5 -6 -5 -6 -6 -6 -6 -6 -6 -6 -6 -6 -6 -7 -7 -7 -7 -8 -8 -9 -9 -9 -9 -9 -10 -10 -10 -10 -10 -10 -10 -10 -9 -10 -10
-6 -6 -7 -7 -7 -7 -6 -6 -6 -5 -5 -6 -5 -5 -6 -6 -6 -6 -6 -6 -6 -6 -6 -7 -7 -7 -7 -7 -8 -8 -8 -9 -9 -9 -9 -10 -10 -10 -10 -10 -10 -10 -10 -10 -10 -10 -10 -10 -10
-6 -7 -6 -6 -7 -7 -7 -6 -6 -6 -5 -6 -6 -5 -6 -6 -6 -6 -6 -6 -7 -7 -7 -7 -7 -7 -7 -8 -8 -8 -8 -8 -9 -9 -9 -9 -9 -10 -10 -10 -10 -10 -10 -10 -10 -10 -10 -10 -10
-6 -6 -6 -6 -6 -6 -6 -6 -6 -7 -6 -6 -5 -5 -6 -7 -6 -7 -6 -6 -7 -7 -7 -8 -7 -8 -8 -8 -8 -8 -8 -9 -9 -9 -9 -9 -9 -10 -10 -10 -10 -10 -10 -10 -10 -10 -10 -11 -11
-6 -6 -6 -6 -6 -6 -6 -5 -6 -6 -5 -5 -6 -5 -6 -6 -7 -7 -6 -7 -7 -7 -8 -8 -8 -8 -8 -8 -8 -9 -9 -9 -9 -9 -9 -9 -9 -10 -10 -10 -10 -10 -10 -10 -10 -10 -11 -11 -11
-6 -6 -7 -6 -6 -6 -6 -5 -6 -6 -5 -4 -5 -5 -6 -6 -6 -7 -7 -7 -8 -8 -8 -8 -8 -9 -9 -9 -9 -9 -9 -9 -10 -9 -9 -10 -10 -10 -10 -10 -10 -10 -10 -10 -10 -11 -11 -11 -11
-6 -7 -7 -7 -7 -7 -7 -6 -6 -6 -5 -4 -6 -7 -7 -6 -6 -7 -7 -8 -8 -8 -8 -8 -8 -8 -9 -9 -9 -10 -9 -9 -9 -10 -10 -10 -10 -10 -10 -10 -10 -10 -11 -11 -11 -11 -11 -11 -11
-6 -7 -7 -8 -7 -7 -6 -6 -6 -6 -5 -4 -5 -7 -8 -7 -8 -8 -8 -8 -8 -9 -9 -8 -8 -8 -8 -8 -9 -9 -9 -9 -9 -10 -10 -10 -10 -10 -11 -10 -10 -11 -11 -11 -11 -11 -11 -11 -11
-7 -7 -7 -7 -8 -7 -7 -7 -6 -6 -6 -5 -6 -8 -8 -8 -8 -8 -8 -8 -8 -9 -9 -9 -8 -9 -8 -8 -9 -9 -9 -9 -10 -10 -10 -10 -10 -10 -10 -11 -12 -11 -11 -11 -11 -11 -11 -12 -12
-7 -8 -7 -7 -7 -7 -7 -7 -7 -7 -6 -5 -8 -8 -8 -8 -8 -8 -8 -8 -8 -9 -9 -9 -9 -9 -9 -9 -9 -9 -10 -10 -10 -10 -10 -10 -11 -11 -12 -12 -12 -11 -11 -11 -11 -11 -11 -12 -11
-8 -8 -8 -8 -8 -7 -7 -7 -7 -8 -6 -5 -7 -8 -9 -9 -8 -8 -8 -9 -9 -9 -9 -9 -9 -9 -9 -9 -9 -9 -10 -10 -10 -11 -11 -11 -11 -11 -11 -11 -11 -11 -11 -11 -11 -11 -11 -12 -12
-8 -8 -9 -8 -8 -8 -7 -7 -7 -8 -8 -7 -8 -8 -8 -9 -8 -8 -9 -8 -9 -8 -9 -9 -10 -10 -9 -9 -9 -10 -10 -10 -11 -12 -12 -11 -11 -11 -11 -11 -11 -11 -11 -11 -11 -11 -11 -12 -12
-8 -9 -10 -9 -9 -8 -8 -8 -7 -7 -8 -8 -8 -8 -8 -8 -8 -8 -8 -8 -9 -8 -9 -10 -9 -9 -9 -10 -10 -10 -11 -12 -12 -12 -11 -11 -11 -11 -11 -11 -11 -11 -11 -10 -11 -11 -11 -11 -12
-9 -9 -10 -10 -10 -9 -8 -8 -7 -8 -8 -8 -8 -8 -8 -8 -8 -9 -9 -10 -9 -9 -10 -9 -9 -10 -10 -11 -11 -12 -12 -12 -11 -11 -11 -11 -11 -11 -11 -11 -11 -11 -11 -11 -11 -12 -12 -12 -13
-11 -10 -10 -11 -10 -10 -10 -8 -8 -7 -7 -8 -8 -8 -9 -9 -8 -9 -9 -9 -8 -10 -10 -9 -9 -10 -12 -12 -12 -12 -11 -11 -11 -11 -11 -11 -11 -11 -11 -11 -11 -11 -11 -12 -13 -13 -14 -15 -15
Height
5910 5911 5912 5912 5914 5910 5907 5906 5905 5906 5904 5903 5903 5902 5902 5903 5902 5904 5903 5903 5902 5905 5905 5903 5901 5901 5900 5897 5897 5896 5896 5896 5896 5895 5896 5896 5896 5895 5894 5893 5892 5891 5889 5888 5887 5886 5885 5884 5882
5912 5914 5915 5914 5914 5912 5909 5908 5908 5910 5909 5906 5905 5906 5905 5905 5903 5905 5905 5905 5905 5907 5907 5904 5904 5903 5901 5900 5900 5899 5899 5899 5899 5899 5898 5898 5898 5897 5896 5895 5893 5892 5890 5890 5889 5888 5886 5885 5883
5914 5914 5916 5916 5915 5914 5911 5910 5911 5912 5912 5910 5909 5908 5909 5908 5908 5908 5908 5908 5908 5910 5909 5907 5905 5904 5903 5902 5902 5901 5901 5901 5901 5901 5901 5900 5900 5898 5897 5896 5895 5893 5892 5891 5890 5889 5888 5886 5884
5916 5917 5918 5918 5916 5914 5913 5912 5912 5915 5915 5914 5913 5912 5912 5912 5911 5911 5911 5910 5912 5911 5909 5908 5906 5905 5905 5904 5903 5903 5903 5902 5903 5903 5902 5901 5901 5900 5898 5897 5896 5894 5893 5892 5891 5889 5888 5887 5885
5919 5919 5919 5919 5918 5916 5915 5913 5914 5918 5919 5918 5917 5916 5915 5915 5914 5913 5912 5913 5914 5912 5911 5909 5908 5907 5906 5905 5905 5905 5904 5904 5903 5903 5902 5901 5901 5900 5899 5898 5897 5895 5894 5892 5891 5889 5888 5887 5887
5920 5920 5921 5921 5921 5919 5916 5915 5914 5919 5921 5921 5919 5918 5918 5918 5917 5916 5916 5915 5915 5914 5911 5910 5909 5908 5908 5907 5907 5906 5905 5905 5904 5904 5903 5902 5901 5900 5899 5899 5898 5896 5895 5893 5892 5890 5888 5887 5887
5918 5920 5921 5922 5922 5922 5920 5918 5917 5922 5924 5923 5922 5921 5920 5920 5919 5918 5917 5917 5916 5915 5912 5911 5911 5910 5909 5909 5908 5907 5907 5906 5906 5905 5904 5903 5902 5901 5900 5899 5899 5897 5896 5894 5892 5891 5890 5888 5887
5920 5922 5922 5922 5922 5923 5922 5920 5921 5922 5924 5926 5923 5922 5921 5921 5920 5919 5917 5917 5916 5915 5913 5913 5913 5912 5911 5909 5908 5908 5908 5907 5907 5906 5905 5904 5903 5902 5901 5900 5899 5898 5897 5894 5893 5891 5890 5889 5887
5921 5923 5923 5922 5921 5921 5922 5923 5923 5922 5924 5925 5925 5924 5922 5923 5922 5921 5919 5917 5918 5915 5915 5915 5914 5912 5911 5910 5909 5909 5909 5908 5908 5907 5906 5904 5904 5903 5902 5902 5901 5899 5898 5896 5894 5892 5891 5889 5888
5923 5923 5923 5922 5920 5922 5923 5924 5925 5924 5925 5927 5927 5925 5923 5922 5922 5922 5920 5918 5917 5917 5916 5915 5914 5913 5912 5911 5910 5910 5910 5909 5909 5908 5907 5906 5905 5904 5904 5903 5902 5900 5898 5897 5895 5893 5891 5890 5888
5922 5924 5923 5923 5922 5921 5921 5925 5925 5925 5926 5927 5927 5926 5926 5923 5921 5921 5920 5918 5917 5918 5918 5916 5915 5914 5913 5911 5911 5911 5911 5911 5910 5910 5910 5908 5907 5906 5905 5904 5902 5901 5900 5897 5895 5893 5891 5889 5887
5923 5922 5923 5926 5925 5923 5923 5923 5925 5925 5926 5927 5927 5927 5927 5924 5922 5921 5919 5921 5920 5919 5918 5917 5915 5914 5913 5912 5911 5911 5912 5912 5911 5910 5910 5909 5907 5906 5905 5904 5903 5901 5899 5897 5894 5892 5889 5887 5885
5919 5921 5923 5925 5926 5924 5922 5923 5923 5924 5926 5927 5927 5928 5928 5927 5924 5923 5921 5922 5922 5920 5917 5917 5915 5914 5913 5914 5912 5912 5913 5912 5911 5909 5909 5908 5907 5906 5905 5904 5903 5901 5899 5896 5893 5890 5888 5886 5884
5916 5920 5921 5923 5925 5924 5924 5922 5923 5924 5926 5927 5927 5927 5928 5926 5925 5925 5924 5923 5920 5919 5917 5917 5916 5915 5915 5914 5913 5913 5913 5913 5912 5911 5909 5908 5907 5906 5905 5905 5903 5901 5899 5896 5893 5890 5887 5884 5882
5916 5918 5920 5922 5924 5922 5921 5922 5922 5924 5927 5927 5926 5926 5925 5925 5924 5924 5923 5922 5919 5918 5916 5916 5915 5915 5914 5914 5914 5914 5914 5913 5911 5911 5909 5908 5907 5906 5906 5905 5903 5900 5898 5895 5892 5889 5886 5883 5880
5914 5915 5915 5917 5919 5919 5920 5920 5922 5923 5925 5924 5924 5924 5924 5924 5924 5924 5922 5921 5919 5918 5917 5916 5916 5915 5914 5914 5915 5914 5913 5911 5910 5909 5908 5907 5907 5906 5904 5903 5900 5898 5896 5893 5891 5887 5884 5881 5877
5911 5913 5913 5913 5914 5916 5916 5916 5919 5920 5922 5923 5923 5922 5923 5925 5924 5923 5922 5921 5920 5919 5918 5918 5917 5917 5916 5915 5914 5913 5911 5910 5910 5909 5908 5907 5906 5904 5902 5899 5896 5893 5890 5888 5886 5883 5880 5877 5873
5908 5909 5910 5911 5911 5909 5912 5912 5913 5916 5919 5919 5920 5921 5922 5923 5922 5922 5920 5920 5920 5919 5918 5918 5917 5916 5916 5915 5914 5913 5912 5911 5910 5909 5907 5905 5903 5900 5897 5894 5891 5887 5884 5881 5878 5875 5872 5870 5867
5901 5903 5905 5909 5908 5907 5909 5910 5910 5912 5913 5915 5917 5917 5919 5921 5920 5919 5917 5918 5919 5917 5917 5917 5916 5915 5914 5913 5912 5910 5909 5908 5907 5905 5903 5901 5899 5896 5892 5889 5885 5880 5878 5874 5870 5868 5865 5862 5858
5897 5900 5903 5905 5904 5902 5903 5904 5905 5906 5909 5911 5912 5913 5915 5918 5917 5917 5916 5917 5916 5915 5915 5914 5913 5912 5911 5909 5908 5907 5905 5904 5902 5900 5898 5895 5892 5889 5886 5883 5879 5874 5870 5867 5863 5860 5858 5854 5850
5892 5895 5899 5901 5897 5898 5898 5898 5901 5902 5904 5905 5908 5910 5911 5912 5914 5915 5916 5916 5915 5913 5911 5910 5909 5907 5905 5904 5903 5901 5900 5897 5895 5894 5892 5889 5885 5881 5877 5873 5870 5866 5862 5859 5855 5852 5848 5846 5842
5886 5890 5891 5891 5889 5891 5892 5889 5892 5894 5900 5900 5902 5904 5907 5908 5910 5910 5912 5915 5913 5911 5908 5906 5905 5903 5902 5901 5897 5896 5894 5891 5889 5885 5884 5882 5879 5874 5871 5866 5862 5858 5853 5851 5847 5844 5840 5835 5829
5880 5878 5881 5882 5882 5884 5886 5885 5890 5889 5892 5897 5895 5899 5901 5903 5905 5905 5907 5909 5908 5906 5905 5902 5900 5898 5897 5894 5891 5891 5889 5885 5884 5881 5877 5875 5872 5867 5862 5858 5853 5848 5845 5840 5837 5834 5829 5825 5822
5870 5870 5872 5874 5875 5873 5882 5878 5881 5884 5888 5890 5890 5894 5896 5898 5899 5900 5902 5904 5904 5901 5900 5897 5893 5891 5889 5886 5886 5885 5883 5879 5875 5873 5869 5865 5861 5857 5853 5847 5843 5837 5833 5829 5825 5821 5817 5813 5809
5861 5865 5865 5868 5868 5868 5878 5873 5873 5876 5882 5883 5884 5888 5889 5891 5892 5893 5894 5895 5896 5895 5894 5893 5891 5887 5883 5881 5879 5877 5873 5870 5867 5864 5860 5855 5851 5846 5841 5836 5831 5826 5822 5817 5813 5809 5805 5801 5798
5853 5854 5856 5856 5860 5867 5871 5866 5867 5872 5873 5877 5876 5878 5881 5883 5884 5886 5887 5887 5886 5886 5884 5883 5883 5879 5878 5875 5871 5867 5865 5862 5858 5855 5851 5846 5842 5837 5832 5827 5821 5816 5811 5807 5802 5798 5793 5790 5786
5845 5845 5847 5847 5852 5853 5858 5859 5861 5866 5868 5868 5868 5871 5874 5876 5879 5880 5880 5879 5873 5862 5866 5866 5868 5868 5871 5868 5864 5861 5858 5855 5851 5847 5842 5836 5831 5826 5821 5816 5812 5806 5801 5796 5791 5786 5781 5777 5773
5831 5836 5838 5839 5840 5842 5846 5851 5854 5861 5865 5865 5866 5869 5870 5873 5874 5873 5873 5872 5867 5856 5858 5861 5865 5865 5862 5860 5857 5853 5849 5846 5842 5837 5832 5828 5823 5818 5812 5807 5801 5795 5791 5785 5780 5775 5770 5766 5762
5825 5826 5826 5830 5830 5833 5838 5842 5847 5854 5858 5859 5860 5863 5865 5866 5866 5867 5864 5862 5855 5857 5860 5859 5860 5856 5853 5851 5848 5845 5842 5838 5834 5829 5824 5819 5813 5807 5801 5796 5791 5785 5779 5774 5768 5762 5757 5753 5750
5811 5814 5817 5817 5823 5825 5829 5834 5840 5843 5849 5851 5853 5854 5856 5857 5859 5856 5855 5855 5846 5850 5853 5854 5851 5849 5847 5846 5843 5840 5835 5831 5826 5821 5816 5810 5805 5799 5793 5787 5781 5774 5767 5760 5753 5747 5743 5741 5738
Wind_Speed
15 11 8 10 13 13 15 23 22 19 17 19 17 14 11 13 11 13 14 15 16 12 11 13 14 14 15 16 16 17 17 17 17 16 14 13 12 12 11 11 11 12 13 15 16 18 17 18 17
15 14 10 11 11 14 20 20 17 12 13 14 16 13 13 13 14 13 14 15 14 8 11 12 12 13 14 15 14 14 13 14 14 13 12 11 10 10 10 9 9 9 10 11 13 14 14 16 17
16 11 9 9 11 13 19 18 17 16 12 12 11 11 13 13 13 12 13 12 11 9 12 14 14 14 13 11 12 12 11 11 11 10 10 10 8 8 7 8 8 9 10 11 12 13 13 15 15
13 7 5 4 7 15 16 17 18 17 16 13 10 10 13 12 12 12 12 12 9 10 12 15 16 15 13 11 9 10 10 9 8 8 8 8 7 7 7 8 9 9 9 10 10 11 12 12 13
6 7 6 6 6 14 15 19 20 18 18 14 10 10 12 10 10 10 11 9 9 10 12 14 15 15 14 12 9 8 8 8 7 7 7 7 6 6 7 8 8 8 9 8 9 10 10 10 10
11 9 2 2 4 12 17 18 21 18 17 15 11 11 10 9 9 8 9 8 9 10 11 13 14 14 13 11 9 7 7 6 6 7 7 6 5 5 6 6 7 8 8 7 7 8 8 9 9
13 10 2 5 1 8 16 17 19 16 15 15 15 15 13 14 11 10 10 9 9 10 12 12 12 12 11 10 9 8 7 5 6 6 7 6 5 5 7 8 9 9 9 8 8 8 9 10 10
13 9 1 5 6 2 13 15 15 14 13 12 14 14 12 14 13 12 13 12 12 11 12 11 12 11 10 10 10 9 6 5 5 5 5 5 4 5 7 8 8 9 10 10 10 11 11 11 11
10 3 7 6 4 2 10 10 11 13 11 10 12 14 11 11 11 9 10 11 9 10 10 9 9 10 10 10 9 8 7 4 4 5 5 4 5 7 10 11 11 12 12 12 12 12 13 12 12
10 4 2 7 11 8 11 9 7 11 8 9 11 12 9 7 9 9 9 10 9 9 7 7 8 8 9 9 8 7 6 4 5 4 4 5 7 9 11 12 12 13 13 13 13 13 14 15 15
9 5 2 5 8 7 9 11 9 6 7 8 7 9 7 6 7 8 8 9 7 6 5 6 7 8 8 8 6 6 4 3 3 3 5 7 9 11 10 11 12 13 13 13 13 14 15 17 19
16 14 11 3 1 5 9 13 6 4 7 6 4 5 5 8 8 8 7 6 4 4 5 5 6 5 6 6 5 6 5 4 4 6 8 9 9 8 9 10 11 12 14 15 16 16 18 20 22
20 18 13 11 10 13 11 4 3 3 1 2 3 3 5 4 6 7 5 8 5 7 8 3 3 4 5 5 6 7 3 5 6 8 9 10 10 9 9 11 12 12 14 16 19 21 23 23 24
18 16 18 17 14 16 15 12 7 5 3 6 4 5 6 5 4 3 5 7 8 8 6 3 5 6 6 6 6 5 2 4 6 7 8 8 8 9 11 12 11 12 14 15 17 19 21 24 25
23 21 23 23 19 19 18 15 8 8 8 6 3 4 6 5 2 2 3 5 6 4 4 3 2 5 5 5 4 3 1 3 4 5 6 7 8 9 11 12 12 15 16 18 19 21 21 23 25
14 17 16 19 16 22 21 17 13 8 7 6 2 5 7 5 2 2 2 4 3 0 1 1 2 2 3 3 1 1 4 6 7 8 8 8 9 11 13 15 16 19 20 20 21 24 25 26 28
16 13 14 16 18 23 24 20 17 11 11 8 9 2 6 6 3 5 3 3 1 2 3 2 2 2 2 2 3 4 6 7 9 10 12 13 15 17 19 21 22 24 26 27 26 29 29 28 30
18 17 19 16 19 23 27 22 22 17 14 13 13 6 4 9 7 7 6 5 6 3 3 3 3 4 4 5 6 8 9 11 13 15 17 19 21 24 26 28 30 31 32 33 34 33 34 35 33
29 25 21 16 21 25 27 24 25 21 18 15 13 8 3 10 11 11 11 8 9 7 7 8 8 9 9 10 12 14 16 17 19 20 21 23 25 28 29 33 35 37 37 40 41 39 39 36 37
32 29 23 22 24 26 29 27 28 26 20 15 11 9 9 6 12 15 14 16 14 14 14 15 15 15 16 17 18 18 20 21 23 25 26 28 30 34 35 37 39 42 43 42 43 41 37 37 38
33 32 26 25 29 29 30 31 30 30 26 20 13 13 16 16 15 17 17 17 15 20 19 19 20 20 20 23 24 25 26 28 29 31 32 34 36 39 43 44 44 45 43 41 41 38 41 40 43
35 29 30 30 34 33 35 38 35 34 27 20 19 20 20 20 22 23 22 23 19 23 23 23 23 24 27 27 27 28 32 34 35 35 35 37 39 43 43 43 45 47 46 41 40 41 41 46 43
31 34 33 38 40 40 40 41 35 35 31 21 26 24 27 25 28 31 30 18 21 21 20 23 24 27 31 32 34 35 36 36 40 39 40 42 43 43 45 50 53 46 43 45 46 48 48 50 48
35 36 37 39 44 49 40 44 43 39 31 27 28 27 31 29 32 33 22 16 21 25 28 26 25 30 33 35 35 34 35 39 42 44 46 45 46 49 53 50 47 49 50 49 49 50 48 46 46
34 36 38 39 42 47 43 49 45 40 36 32 35 32 30 32 36 30 25 25 27 29 27 28 29 35 35 36 38 40 40 42 43 46 48 47 51 52 50 51 51 51 49 49 49 48 47 47 46
36 37 41 44 42 42 49 52 49 42 40 37 40 34 35 36 38 35 33 31 33 35 32 28 28 30 32 34 33 38 40 43 44 46 48 50 50 50 50 49 48 47 46 48 49 50 50 50 49
40 42 43 44 46 48 48 55 53 44 44 43 44 42 42 41 40 41 42 46 49 35 39 27 25 19 28 34 37 39 43 44 44 46 49 49 50 49 48 47 48 48 47 46 45 46 47 47 48
49 44 47 47 48 51 53 50 54 51 48 48 48 46 46 44 47 48 51 50 55 35 20 18 21 29 34 35 36 37 38 41 46 47 48 49 48 47 48 47 44 42 42 45 48 49 49 50 49
47 50 50 51 51 50 51 53 50 55 52 54 56 52 51 52 50 45 44 51 50 46 18 19 27 34 34 32 35 36 41 45 46 47 46 45 46 45 43 43 43 45 49 52 54 53 52 50 44
44 51 50 55 52 50 48 48 45 42 44 49 49 49 46 42 39 20 19 20 33 20 21 27 31 32 31 33 36 40 43 45 45 43 44 44 43 43 43 45 47 51 54 55 55 53 50 41 35
Wind_Direction
128 130 125 107 73 75 70 56 42 27 23 46 62 70 70 73 82 87 77 70 65 50 44 46 46 44 49 51 47 44 38 33 31 36 34 35 38 36 41 41 39 35 35 37 39 39 37 38 38
139 124 100 91 84 77 74 65 56 45 31 34 47 50 53 65 72 73 73 69 66 54 42 42 38 36 44 46 45 49 42 35 31 32 30 35 28 28 26 32 34 35 35 37 38 44 39 42 39
150 131 109 59 91 88 78 76 75 67 55 49 48 50 56 66 68 74 73 70 68 56 47 42 36 28 32 37 39 48 42 38 30 28 20 21 16 12 10 8 10 9 13 22 30 36 34 39 39
149 146 83 73 79 82 87 76 72 65 59 50 38 48 62 68 66 66 65 65 60 51 46 41 32 26 22 25 30 43 41 43 30 19 10 5 356 353 353 353 357 358 2 6 13 15 16 23 29
135 123 64 55 97 98 96 82 73 66 57 54 46 38 53 65 66 65 62 59 43 34 33 35 28 21 18 19 19 28 36 38 37 29 13 352 331 335 347 346 346 349 349 354 353 359 4 11 16
152 124 73 67 99 101 97 86 77 53 52 50 51 47 45 47 51 47 56 44 31 22 30 29 24 21 21 21 17 21 24 21 21 17 11 7 356 356 9 2 359 1 359 359 2 4 2 10 18
146 141 60 174 74 120 99 95 86 70 56 55 56 53 51 52 44 39 46 38 29 26 33 26 21 21 24 20 18 20 15 11 15 25 33 30 27 25 13 355 351 354 356 356 3 6 2 359 5
170 124 150 236 209 104 106 99 92 86 76 72 67 58 56 61 58 56 61 55 49 42 38 23 15 16 13 15 15 16 15 13 19 19 14 6 351 352 356 350 352 354 357 355 354 353 352 353 353
171 154 181 213 192 139 108 95 100 94 81 84 81 71 57 55 66 59 66 64 54 47 39 21 9 9 3 5 11 14 15 17 22 14 354 350 8 15 10 358 357 355 356 356 358 1 2 358 354
192 192 205 207 183 168 111 115 124 109 95 98 109 88 71 59 64 56 49 56 49 45 36 17 6 7 3 359 3 10 7 6 26 13 358 1 10 8 1 3 4 0 356 0 3 2 0 355 355
181 179 207 226 196 181 125 124 128 122 133 120 120 97 70 46 32 38 59 48 49 43 23 21 8 4 1 355 357 12 11 23 58 1 342 352 8 5 0 3 4 355 350 350 350 347 345 347 348
211 218 230 246 62 213 161 139 123 128 147 116 123 92 70 39 15 358 13 62 48 350 335 5 359 19 5 351 16 29 6 323 347 357 358 5 13 10 0 355 352 351 342 335 332 339 340 341 342
227 236 255 265 274 284 291 173 142 160 155 86 23 358 349 348 357 342 323 321 337 329 321 15 14 46 37 29 52 57 1 334 3 10 2 2 3 359 354 346 344 344 337 335 336 335 332 334 337
247 244 256 265 267 278 254 231 194 227 293 349 350 350 3 337 313 309 288 299 328 345 331 38 76 81 78 71 61 71 13 1 15 5 359 356 345 333 330 324 324 326 325 330 333 336 335 333 333
248 258 255 258 265 267 257 247 209 224 260 279 295 44 19 348 335 316 301 314 346 6 13 358 43 90 88 82 93 98 3 351 350 345 337 329 319 315 313 309 302 299 302 308 316 320 320 322 323
245 258 262 265 266 267 258 253 244 234 244 285 248 58 55 356 54 8 319 331 353 130 126 159 104 73 70 100 162 293 315 330 324 318 316 309 303 306 307 308 306 303 303 305 307 310 311 316 319
237 244 256 251 255 259 257 254 242 243 251 263 252 91 30 349 41 12 331 308 278 134 145 159 158 160 191 232 270 290 310 307 296 301 304 305 307 308 306 305 304 305 307 307 307 309 311 314 312
239 242 243 243 238 238 239 236 240 246 258 267 242 237 328 306 347 351 341 279 256 247 242 239 242 263 276 283 282 279 282 288 293 297 300 306 310 310 308 306 305 303 302 302 303 305 308 312 310
236 233 234 234 241 240 232 232 243 247 252 246 250 251 229 290 326 332 328 326 289 289 296 291 292 290 284 285 291 296 302 304 303 305 302 304 306 307 307 308 305 302 301 303 303 306 308 306 308
244 242 238 230 237 243 234 239 235 239 242 242 256 241 265 279 327 317 316 325 331 336 317 305 307 303 300 304 304 299 297 297 298 296 294 298 305 308 306 304 303 304 303 300 301 304 303 303 305
240 242 239 239 239 240 241 248 245 245 248 257 250 264 273 289 297 297 318 325 327 331 316 306 298 297 298 300 300 297 295 293 290 292 296 298 300 302 303 303 304 304 302 300 298 296 299 296 295
243 237 225 224 234 236 237 243 237 240 246 258 255 265 276 277 286 296 301 318 313 318 300 300 295 287 290 289 287 291 286 287 293 291 292 294 294 298 299 295 296 297 297 298 297 296 294 291 299
238 234 227 217 228 237 237 245 235 241 254 263 260 269 280 284 288 294 301 294 301 306 294 308 300 289 288 285 278 280 287 290 290 289 289 294 295 294 293 294 296 295 293 295 298 297 298 300 300
242 235 235 225 222 237 228 240 245 244 250 256 265 270 277 280 281 289 293 285 288 295 282 302 298 304 301 294 288 284 287 286 288 291 294 295 292 291 293 296 299 298 298 297 297 297 296 296 297
247 242 238 235 230 245 233 234 243 240 247 253 249 254 261 270 273 276 280 277 278 278 277 285 291 297 294 285 283 286 285 286 288 289 289 290 293 296 299 298 298 297 298 299 300 300 299 297 297
244 242 241 235 228 235 232 234 237 232 248 252 249 251 255 259 266 274 276 277 269 266 266 265 281 286 286 285 281 281 283 285 288 291 293 298 299 300 300 301 300 300 299 299 298 297 296 295 294
237 239 235 236 232 227 233 232 237 231 234 245 250 254 257 260 269 273 276 276 279 245 245 252 275 284 281 280 284 285 286 288 294 299 301 300 300 300 301 301 300 299 300 300 300 298 298 297 295
237 231 230 234 232 229 226 235 239 239 238 244 248 252 259 266 272 273 279 280 275 267 278 292 294 290 286 283 285 290 297 298 299 300 301 302 302 302 301 300 301 301 301 301 300 298 297 296 294
247 241 230 230 234 235 233 231 235 239 241 246 250 254 261 266 270 273 276 267 288 259 270 288 300 293 289 295 298 297 297 299 300 302 303 302 302 301 300 300 301 303 302 300 297 295 293 292 292
239 242 233 228 231 237 237 233 232 234 242 247 249 251 254 257 258 281 307 306 340 291 272 278 293 285 289 293 296 296 298 299 302 302 303 304 302 302 302 303 305 305 301 297 295 294 294 296 293